IRIDIUM 33 DEB, 35680

Orbit data source: Space-Track

IRIDIUM 33 DEB, 35680 is space debris in LEO originally from a launch on Sun, 14 Sep 1997 UTC launched from the Tyuratam Missile And Space Complex (TTMTR). The debris from Iridium 33, an American commercial communications satellite, has been tracked extensively since its accidental collision with the defunct Russian satellite Cosmos 2251 in 2009. This event, occurring at high speed in low Earth orbit (LEO), generated thousands of pieces of space debris, significantly increasing the risk of further collisions. The Iridium 33 debris cloud has impacted space traffic management and orbital debris mitigation strategies, making it a subject of ongoing study in space situational awareness.

Loading next visibility...
Identifier
35680, 1997-051RJ
Orbit
LEO
Country
Flag of USUS
Related business
Manufacturer
Unknown
Mission
Spacecraft
Bus & Motor
Unknown
Mass
Unknown
Launch date (UTC)
1997-09-14 (28 years ago)
Launch vehicle
Unknown
Launch site
Tyuratam Missile And Space Complex (TTMTR)
Object type
Payload
Rocket body
Debris
Shape & HBR
Unknown shape, 0.1 m
Radar Cross Section
Small (<0.1 m²)

Expand to show TLE details & history
Last TLE update: 18 hours ago

TLE from 18 hours ago
0 IRIDIUM 33 DEB
1 35680U 97051RJ  25304.54649817  .00008470  00000-0  35286-2 0  9997
2 35680  86.1018  40.1887 0152810  55.1273 321.9436 14.20072937601028
Epoch: 2025-10-31T13:06Z
TLE epoch observation values (Epoch: 2025-10-31T13:06:57.441Z)
Latitude
15.91626°
Longitude
164.46743°
Altitude
741.423 km
Speed
7.53 km/s
True Right ascension
02h 45m 11s
True Declination
15° 49' 32"
Sunlit
Object was in full shadow at epoch
Visualization orbit readout
Latitude
Unknown
Longitude
Unknown
Altitude
Unknown
Speed
Unknown
Apparent Right ascension
Unknown
Apparent Declination
Unknown
Sunlit
N/A
Visualization observer readout
Local Sidereal Time
03:02:55
Azimuth
Unknown
Elevation
Unknown
Doppler factor
Unknown
Orbital elements
Apogee altitude
932.123 km
Perigee altitude
712.069 km
Semi-major axis
7,200.233 km
Eccentricity
0.01528
Inclination
86.1018°
RAAN
40.1887°
Arg. of periapsis
55.1273°
True anomaly
320.84777°
Mean anomaly
321.9436°
Eccentric anomaly
321.39734°
Mean motion
3.55241 °/min
Orbital period
101.34 mins
BSTAR
0.0035286
Loading maneuver chart data...
Computing Atmospheric mass density...

Documentation

Showing up to 5 results
|